Location: Unspecified
(43.3830°N, 0.0000°E)
Time: 03:30:57
(UTC+00:00)

Vanguard 2 - Pass Details

Date: 23 June 2019
Orbit: 553 x 2938 km, 32.9° (Epoch: 18 July)

Event Time Altitude Azimuth Distance (km) Brightness Sun altitude
Rises 14:32:26 0° 263° (W) 4,914 12.2 53.3°
Reaches altitude 10° 14:37:07 10° 244° (WSW) 4,366 12.2 52.5°
Maximum altitude 14:43:52 17° 211° (SSW) 4,381 12.1 51.3°
Drops below altitude 10° 14:52:01 10° 179° (S) 5,402 12.1 49.9°
Sets 14:59:10 0° 162° (SSE) 6,682 12.3 48.7°
